AC4VM Weather Reports


Display with metric or nautical units.
time (UTC)temp
F
wind
direction
speed
MPH
gust
MPH
rain 1hr
in
rain 24hr
in
rain mn
in
humidity
%
barometer
mb
20260901194517 91 199 0.0 5.0 0.00 0.00 0.00 54 1015.9
20260901193016 89 68 0.0 4.0 0.00 0.00 0.00 58 1016.2
20260901191527 92 360 4.0 7.0 0.00 0.00 0.00 53 1016.2
20260901190012 93 54 4.0 7.0 0.00 0.00 0.00 52 1016.5
20260901184512 91 11 4.0 7.0 0.00 0.00 0.00 54 1016.7
20260901183008 89 91 1.0 3.0 0.00 0.00 0.00 58 1016.8
20260901181508 90 36 4.0 8.0 0.00 0.00 0.00 57 1017.0
20260901180007 91 77 4.0 11.0 0.00 0.00 0.00 57 1017.1
20260901174506 90 208 1.0 4.0 0.00 0.00 0.00 58 1017.2
20260901173005 88 149 0.0 4.0 0.00 0.00 0.00 63 1017.5
20260901171504 90 283 3.0 5.0 0.00 0.00 0.00 59 1017.7
20260901170004 89 64 3.0 8.0 0.00 0.00 0.00 60 1017.8
20260901164505 88 92 2.0 6.0 0.00 0.00 0.00 60 1018.0
20260901163059 87 56 0.0 6.0 0.00 0.00 0.00 66 1018.4
20260901161609 87 213 0.0 6.0 0.00 0.00 0.00 68 1018.5
20260901160107 86 73 1.0 4.0 0.00 0.00 0.00 67 1018.5
20260901154558 85 108 2.0 7.0 0.00 0.00 0.00 67 1018.7
20260901153054 85 55 1.0 5.0 0.00 0.00 0.00 71 1018.8
20260901151548 84 108 1.0 4.0 0.00 0.00 0.00 72 1018.7
20260901150047 83 244 2.0 4.0 0.00 0.00 0.00 74 1018.7
20260901144549 83 69 0.0 3.0 0.00 0.00 0.00 75 1018.8
20260901143047 82 143 1.0 5.0 0.00 0.00 0.00 75 1018.8
20260901141548 82 208 1.0 3.0 0.00 0.00 0.00 77 1018.7
20260901140039 80 250 1.0 3.0 0.00 0.00 0.00 79 1018.9
20260901134539 79 38 1.0 3.0 0.00 0.00 0.00 80 1018.8
20260901133035 78 127 1.0 3.0 0.00 0.00 0.00 83 1018.8
20260901131530 77 71 0.0 3.0 0.00 0.00 0.00 85 1018.9
20260901130029 76 279 0.0 2.0 0.00 0.00 0.00 88 1018.8
20260901124525 74 279 0.0 2.0 0.00 0.00 0.00 93 1019.0
20260901123021 72 279 0.0 1.0 0.00 0.00 0.00 95 1018.9
20260901121519 71 279 0.0 2.0 0.00 0.00 0.00 95 1018.7
20260901120018 70 279 1.0 2.0 0.00 0.00 0.00 96 1018.4
20260901114515 69 279 0.0 0.0 0.00 0.00 0.00 96 1018.2
20260901113014 68 279 0.0 0.0 0.00 0.00 0.00 96 1017.8
20260901111512 69 279 0.0 0.0 0.00 0.00 0.00 96 1017.7
20260901110011 68 279 0.0 0.0 0.00 0.00 0.00 96 1017.5
20260901104511 69 279 0.0 2.0 0.00 0.00 0.00 96 1017.3
20260901103009 68 279 0.0 0.0 0.00 0.00 0.00 96 1017.1
20260901101509 69 279 0.0 0.0 0.00 0.00 0.00 95 1016.9
20260901100008 69 279 0.0 2.0 0.00 0.00 0.00 96 1016.9
20260901094506 69 279 0.0 1.0 0.00 0.00 0.00 95 1016.9
20260901093005 69 279 0.0 2.0 0.00 0.00 0.00 95 1016.8
20260901091504 69 279 0.0 1.0 0.00 0.00 0.00 95 1016.8
20260901090007 70 279 0.0 1.0 0.00 0.00 0.00 95 1016.7
20260901084503 69 279 0.0 0.0 0.00 0.00 0.00 95 1016.7
20260901083002 70 279 0.0 0.0 0.00 0.00 0.00 95 1016.6
20260901081559 70 279 0.0 1.0 0.00 0.00 0.00 95 1016.7
20260901080106 70 279 0.0 1.0 0.00 0.00 0.00 95 1016.8
20260901074558 70 279 0.0 0.0 0.00 0.00 0.00 95 1016.9
20260901073101 70 279 0.0 2.0 0.00 0.00 0.00 95 1016.8
20260901071559 71 279 0.0 1.0 0.00 0.00 0.00 95 1016.8
20260901070106 71 279 0.0 0.0 0.00 0.00 0.00 94 1016.8
20260901064554 71 279 0.0 0.0 0.00 0.00 0.00 94 1017.0
20260901063054 71 279 0.0 1.0 0.00 0.00 0.00 94 1017.0
20260901061553 71 279 0.0 0.0 0.00 0.00 0.00 94 1017.2
20260901060052 71 279 0.0 0.0 0.00 0.00 0.00 94 1017.3
20260901054550 72 279 0.0 0.0 0.00 0.00 0.00 94 1017.5
20260901053053 72 279 0.0 0.0 0.00 0.00 0.00 94 1017.3
20260901051549 72 279 0.0 1.0 0.00 0.00 0.00 93 1017.4
20260901050052 72 279 0.0 2.0 0.00 0.00 0.00 93 1017.3
20260901044555 72 279 0.0 0.0 0.00 0.00 0.00 92 1017.1
20260901043043 73 279 0.0 1.0 0.00 0.00 0.00 92 1017.0
20260901041541 73 279 0.0 1.0 0.00 0.00 0.00 92 1017.1
20260901040048 73 279 0.0 1.0 0.00 0.00 0.00 92 1017.0
20260901034541 73 279 1.0 2.0 0.00 0.00 0.00 91 1016.7
20260901033053 74 279 0.0 1.0 0.00 0.00 0.00 91 1016.7
20260901031537 74 279 0.0 2.0 0.00 0.00 0.00 91 1016.6
20260901030037 75 279 0.0 2.0 0.00 0.00 0.00 89 1016.6
20260901024537 74 279 0.0 0.0 0.00 0.00 0.00 90 1016.8
20260901023039 75 279 0.0 3.0 0.00 0.00 0.00 88 1016.8
20260901021549 75 279 0.0 1.0 0.00 0.00 0.00 87 1016.7
20260901020035 76 279 0.0 3.0 0.00 0.00 0.00 87 1016.7
20260901014533 76 285 0.0 1.0 0.00 0.00 0.00 87 1016.5
20260901013046 77 285 0.0 2.0 0.00 0.00 0.00 85 1016.2
20260901011542 78 285 1.0 2.0 0.00 0.00 0.00 84 1016.2
20260901010033 79 285 0.0 1.0 0.00 0.00 0.00 81 1016.1
20260901004531 79 285 0.0 1.0 0.00 0.00 0.00 82 1016.0
20260901003039 80 285 0.0 0.0 0.00 0.00 0.00 80 1015.9
20260901001529 81 285 0.0 1.0 0.00 0.00 0.00 78 1015.8
20260901000033 83 285 0.0 1.0 0.00 0.00 0.00 72 1015.9
20260831234529 85 285 0.0 2.0 0.00 0.00 0.00 69 1015.7
20260831233028 86 285 1.0 3.0 0.00 0.00 0.00 63 1015.9
20260831231527 87 268 1.0 3.0 0.00 0.00 0.00 58 1015.9
20260831230025 88 338 1.0 4.0 0.00 0.00 0.00 56 1016.1
20260831224524 88 6 1.0 3.0 0.00 0.00 0.00 57 1016.2
20260831223033 88 291 2.0 7.0 0.00 0.00 0.00 57 1016.2
20260831221522 89 353 2.0 5.0 0.00 0.00 0.00 57 1016.2
20260831220026 88 334 1.0 8.0 0.00 0.00 0.00 59 1016.3
20260831214522 89 253 3.0 9.0 0.00 0.00 0.00 60 1016.4
20260831213019 89 290 3.0 7.0 0.00 0.00 0.00 58 1016.3
20260831211532 89 286 2.0 5.0 0.00 0.00 0.00 60 1016.3
20260831210017 88 333 5.0 8.0 0.00 0.00 0.00 61 1016.5
20260831204516 89 271 2.0 4.0 0.00 0.00 0.00 55 1016.6
20260831203013 90 235 2.0 5.0 0.00 0.00 0.00 55 1016.7
20260831201514 91 342 1.0 6.0 0.00 0.00 0.00 56 1016.7
20260831200010 90 301 2.0 10.0 0.00 0.00 0.00 55 1017.0